Location: Blankensee
(53.5126°N, 14.3055°E)
Time: 17:21:11
(UTC+00:00)

MOZ.5/SAFIR/RUBIN 5/SL-8 - Pass Details

Date: 08 August 2020
Orbit: 677 x 706 km, 98.1° (Epoch: 19 September)

Event Time Altitude Azimuth Distance (km) Brightness Sun altitude
Exits shadow 00:38:18 33° 191° (S) 1,167 4.4 -17.8°
Maximum altitude 00:40:17 61° 258° (WSW) 799 3.9 -17.7°
Drops below altitude 10° 00:45:01 10° 339° (NNW) 2,176 7.0 -17.4°
Sets 00:47:18 0° 343° (NNW) 3,094 7.9 -17.3°
